Вернуться в каталог

COSMOS 1168

АктивенВоенныеPO
NORAD 11735·PAYLOAD·🇷🇺 Russia

Запущен Mar 17, 1980 с Plesetsk Cosmodrome

Loading…

Ближайшие Пролёты (ближайшие 24 часа)

TLE

СвежийSource: Space-Track

Эпоха: Sep 14, 2026, 07:26 UTC

1 11735U 80022A   26257.31001150  .00000039  00000-0  24772-4 0  9990
2 11735  82.9475 208.4047 0036807 110.9091  51.6554 13.75259029332405

Отслеживайте COSMOS 1168 в реальном времени с AllMySat

Download on the App Store